This demonstration page uses our WeatherBlox Daily Observations layout. Learn more.

Hourly Observations for March 25, 2020

Temp ( °F °C ) Dew Point ( °F °C ) Humidity (%) Winds ( mph kmh ) Pressure ( in mb ) Visibility ( mi km ) Precip ( " mm )
12:15 am 00:15 Cloudy 48 9 41 5 76 76 SSE 10 17 30.08 1019 10 16.0934 0 0
12:35 am 00:35 Cloudy 46 8 41 5 82 82 SE 3 6 30.08 1019 10 16.0934 0 0
12:55 am 00:55 Cloudy 46 8 41 5 82 82 SE 3 6 30.07 1018 10 16.0934 0 0
1:15 am 01:15 Cloudy 46 8 41 5 82 82 SE 3 6 30.06 1018 10 16.0934 0 0
1:35 am 01:35 Cloudy 46 8 41 5 82 82 ESE 6 9 30.04 1017 10 16.0934 0 0
1:55 am 01:55 Cloudy 46 8 41 5 82 82 SSE 6 9 30.04 1017 10 16.0934 0 0
2:15 am 02:15 Cloudy 46 8 41 5 82 82 SE 5 7 30.03 1017 10 16.0934 0 0
2:35 am 02:35 Cloudy 46 8 41 5 82 82 SE 7 11 30.01 1016 10 16.0934 0 0
2:55 am 02:55 Cloudy 46 8 43 6 87 87 SE 5 7 30.02 1017 10 16.0934 0 0
3:15 am 03:15 Cloudy 46 8 43 6 87 87 SE 6 9 30.01 1016 10 16.0934 0 0
3:35 am 03:35 Cloudy 45 7 43 6 93 93 ESE 6 9 30 1016 10 16.0934 0 0
4:15 am 04:15 Cloudy 45 7 43 6 93 93 ESE 6 9 29.98 1015 10 16.0934 0 0
4:35 am 04:35 Cloudy 45 7 43 6 93 93 E 3 6 29.97 1015 10 16.0934 0 0
4:55 am 04:55 Cloudy 45 7 43 6 93 93 ESE 8 13 29.97 1015 10 16.0934 0 0
5:15 am 05:15 Cloudy 45 7 43 6 93 93 SE 7 11 29.97 1015 10 16.0934 0 0
5:35 am 05:35 Cloudy 45 7 43 6 93 93 SE 9 15 29.96 1015 10 16.0934 0.01 0.254
5:55 am 05:55 Cloudy 45 7 43 6 93 93 ESE 6 9 29.96 1015 10 16.0934 0.01 0.254
6:15 am 06:15 Cloudy 43 6 43 6 100 100 E 6 9 29.96 1015 10 16.0934 0 0
6:35 am 06:35 Cloudy 43 6 41 5 93 93 E 9 15 29.96 1015 10 16.0934 0 0
6:55 am 06:55 Cloudy 43 6 41 5 93 93 ENE 8 13 29.95 1014 10 16.0934 0 0
7:15 am 07:15 Cloudy 43 6 39 4 87 87 E 8 13 29.96 1015 10 16.0934 0 0
7:35 am 07:35 Cloudy 43 6 39 4 87 87 E 6 9 29.97 1015 10 16.0934 0 0
7:55 am 07:55 Cloudy 43 6 39 4 87 87 E 6 9 29.96 1015 10 16.0934 0 0
8:15 am 08:15 Cloudy 43 6 41 5 93 93 NE 5 7 29.97 1015 5 8.0467 0 0
8:35 am 08:35 Cloudy 41 5 41 5 100 100 NE 7 11 29.96 1015 3 4.82802 0 0
8:55 am 08:55 Cloudy 41 5 41 5 100 100 NNE 6 9 29.97 1015 2 3.21868 0.02 0.508
9:15 am 09:15 Cloudy 41 5 41 5 100 100 N 7 11 29.97 1015 2 3.21868 0.02 0.508
9:35 am 09:35 Cloudy 41 5 41 5 100 100 N 7 11 29.98 1015 3 4.82802 0.04 1.016
9:55 am 09:55 Cloudy 41 5 41 5 100 100 NNE 10 17 29.98 1015 3 4.82802 0.06 1.524
10:15 am 10:15 Cloudy 41 5 41 5 100 100 N 10 17 29.98 1015 3 4.82802 0.03 0.762
10:35 am 10:35 Cloudy 41 5 41 5 100 100 NNE 10 17 29.99 1016 5 8.0467 0.06 1.524
10:55 am 10:55 Cloudy 41 5 41 5 100 100 NNE 12 19 29.98 1015 3 4.82802 0.12 3.048
11:15 am 11:15 Cloudy 41 5 41 5 100 100 NNE 10 17 29.99 1016 10 16.0934 0.02 0.508
11:35 am 11:35 Cloudy 41 5 41 5 100 100 NNE 14 22 29.99 1016 10 16.0934 0.03 0.762
11:55 am 11:55 Cloudy 41 5 41 5 100 100 NNE 10 17 29.99 1016 10 16.0934 0.04 1.016
12:15 pm 12:15 Cloudy 41 5 41 5 100 100 NNE 12 19 30 1016 10 16.0934 0 0
12:35 pm 12:35 Cloudy 43 6 41 5 93 93 NNE 8 13 30 1016 10 16.0934 0.01 0.254
12:55 pm 12:55 Cloudy 43 6 43 6 100 100 NNE 7 11 30 1016 7 11.26538 0.01 0.254
1:15 pm 13:15 Cloudy 41 5 41 5 100 100 NNE 10 17 30 1016 7 11.26538 0 0
1:35 pm 13:35 Cloudy 41 5 41 5 100 100 NNE 12 19 30 1016 7 11.26538 0 0
1:55 pm 13:55 Cloudy 41 5 41 5 100 100 NNE 10 17 30 1016 5 8.0467 0.01 0.254
2:15 pm 14:15 Cloudy 41 5 41 5 100 100 NNE 9 15 29.99 1016 5 8.0467 0 0
2:35 pm 14:35 Cloudy 41 5 41 5 100 100 NNE 9 15 29.98 1015 5 8.0467 0 0
2:55 pm 14:55 Cloudy 41 5 41 5 100 100 NNE 8 13 29.98 1015 4 6.43736 0 0
3:15 pm 15:15 Cloudy 41 5 41 5 100 100 NNE 10 17 29.98 1015 4 6.43736 0 0
3:35 pm 15:35 Cloudy 41 5 41 5 100 100 N 12 19 29.99 1016 4 6.43736 0 0
3:55 pm 15:55 Cloudy 41 5 41 5 100 100 N 13 20 30 1016 7 11.26538 0 0
4:15 pm 16:15 Cloudy 41 5 41 5 100 100 N 13 20 30 1016 10 16.0934 0 0
4:35 pm 16:35 Cloudy 41 5 39 4 93 93 NNE 9 15 30 1016 10 16.0934 0 0
4:55 pm 16:55 Cloudy 41 5 41 5 100 100 N 8 13 30 1016 4 6.43736 0 0
5:15 pm 17:15 Cloudy 41 5 41 5 100 100 NNE 8 13 30 1016 3 4.82802 0 0
5:35 pm 17:35 Cloudy 41 5 41 5 100 100 NNE 7 11 30 1016 5 8.0467 0 0
5:55 pm 17:55 Cloudy 41 5 41 5 100 100 N 12 19 30.01 1016 10 16.0934 0 0
6:15 pm 18:15 Cloudy 41 5 41 5 100 100 NNE 8 13 30.02 1017 10 16.0934 0 0
6:35 pm 18:35 Cloudy 41 5 41 5 100 100 NNE 8 13 30.03 1017 10 16.0934 0 0
6:55 pm 18:55 Cloudy 41 5 41 5 100 100 NNE 10 17 30.04 1017 10 16.0934 0 0
7:15 pm 19:15 Cloudy 41 5 41 5 100 100 NNE 7 11 30.05 1018 5 8.0467 0 0
7:35 pm 19:35 Cloudy 41 5 41 5 100 100 N 6 9 30.05 1018 7 11.26538 0 0
7:55 pm 19:55 Cloudy 41 5 41 5 100 100 N 6 9 30.06 1018 10 16.0934 0 0
8:15 pm 20:15 Cloudy 41 5 41 5 100 100 N 3 6 30.07 1018 10 16.0934 0 0
8:35 pm 20:35 Cloudy 43 6 41 5 93 93 N 5 7 30.08 1019 10 16.0934 0 0
8:55 pm 20:55 Cloudy 41 5 41 5 100 100 NNW 3 6 30.09 1019 10 16.0934 0 0
9:15 pm 21:15 Cloudy 41 5 41 5 100 100 Calm 30.09 1019 10 16.0934 0 0
9:35 pm 21:35 Cloudy 43 6 41 5 93 93 Calm 30.1 1019 10 16.0934 0 0
9:55 pm 21:55 Cloudy 43 6 41 5 93 93 Calm 30.1 1019 10 16.0934 0 0
10:15 pm 22:15 Cloudy 43 6 41 5 93 93 NNE 3 6 30.11 1020 10 16.0934 0 0
10:35 pm 22:35 Cloudy 43 6 41 5 93 93 NNE 3 6 30.11 1020 10 16.0934 0 0
10:55 pm 22:55 Cloudy 43 6 41 5 93 93 Calm 30.11 1020 10 16.0934 0 0
11:15 pm 23:15 Cloudy 43 6 41 5 93 93 N 3 6 30.11 1020 10 16.0934 0 0
11:35 pm 23:35 Cloudy 41 5 41 5 100 100 Calm 30.11 1020 10 16.0934 0 0
11:55 pm 23:55 Cloudy 41 5 41 5 100 100 Calm 30.11 1020 10 16.0934 0 0

Powered by AerisWeather